| time (UTC) | temp F | wind direction | speed MPH | gust MPH | rain 1hr in | rain 24hr in | rain mn in | humidity % | barometer mb |
| 20260504234151 | 65 | 0 | 7.0 | 13.0 | 0.00 | 0.00 | 0.00 | 73 | 1014.3 |
| 20260504233652 | 65 | 294 | 6.0 | 13.0 | 0.00 | 0.00 | 0.00 | 72 | 1014.3 |
| 20260504233533 | 66 | 0 | 5.0 | 15.0 | 0.00 | 0.00 | 0.00 | 76 | 1014.2 |
| 20260504232655 | 65 | 205 | 6.0 | 15.0 | 0.00 | 0.00 | 0.00 | 74 | 1014.1 |
| 20260504232151 | 66 | 277 | 6.0 | 13.0 | 0.00 | 0.00 | 0.00 | 72 | 1014.1 |
| 20260504231652 | 66 | 227 | 7.0 | 14.0 | 0.00 | 0.00 | 0.00 | 72 | 1014.1 |
| 20260504231151 | 65 | 0 | 7.0 | 15.0 | 0.00 | 0.00 | 0.00 | 70 | 1014.1 |
| 20260504230653 | 65 | 0 | 7.0 | 15.0 | 0.00 | 0.00 | 0.00 | 74 | 1014.1 |
| 20260504230149 | 65 | 279 | 7.0 | 15.0 | 0.00 | 0.00 | 0.00 | 73 | 1014.2 |
| 20260504225650 | 66 | 248 | 7.0 | 15.0 | 0.00 | 0.00 | 0.00 | 73 | 1014.2 |
| 20260504225548 | 66 | 0 | 7.0 | 15.0 | 0.00 | 0.00 | 0.00 | 73 | 1014.3 |
| 20260504224653 | 67 | 279 | 6.0 | 16.0 | 0.00 | 0.00 | 0.00 | 73 | 1014.3 |
| 20260504224150 | 67 | 153 | 6.0 | 16.0 | 0.00 | 0.00 | 0.00 | 72 | 1014.4 |
| 20260504223649 | 67 | 256 | 7.0 | 15.0 | 0.00 | 0.00 | 0.00 | 72 | 1014.5 |
| 20260504223150 | 67 | 182 | 7.0 | 15.0 | 0.00 | 0.00 | 0.00 | 73 | 1014.6 |
| 20260504222650 | 66 | 0 | 8.0 | 15.0 | 0.00 | 0.00 | 0.00 | 72 | 1014.5 |
| 20260504222152 | 67 | 227 | 8.0 | 15.0 | 0.00 | 0.00 | 0.00 | 73 | 1014.6 |
| 20260504221653 | 66 | 231 | 8.0 | 17.0 | 0.00 | 0.00 | 0.00 | 74 | 1014.6 |
| 20260504221148 | 66 | 293 | 7.0 | 17.0 | 0.00 | 0.00 | 0.00 | 74 | 1014.7 |
| 20260504220646 | 66 | 0 | 7.0 | 15.0 | 0.00 | 0.00 | 0.00 | 74 | 1014.8 |
| 20260504220422 | 66 | 0 | 7.0 | 17.0 | 0.00 | 0.00 | 0.00 | 74 | 1014.8 |
| 20260504220301 | 66 | 294 | 7.0 | 15.0 | 0.00 | 0.00 | 0.00 | 74 | 1014.8 |
| 20260504215147 | 66 | 0 | 7.0 | 17.0 | 0.00 | 0.00 | 0.00 | 74 | 1014.9 |
| 20260504214647 | 66 | 282 | 7.0 | 14.0 | 0.00 | 0.00 | 0.00 | 74 | 1014.8 |
| 20260504214146 | 66 | 0 | 7.0 | 14.0 | 0.00 | 0.00 | 0.00 | 75 | 1015.1 |
| 20260504213646 | 66 | 0 | 6.0 | 13.0 | 0.00 | 0.00 | 0.00 | 74 | 1015.2 |
| 20260504213151 | 66 | 0 | 6.0 | 12.0 | 0.00 | 0.00 | 0.00 | 73 | 1015.3 |
| 20260504212646 | 66 | 172 | 6.0 | 12.0 | 0.00 | 0.00 | 0.00 | 74 | 1015.2 |
| 20260504212144 | 66 | 217 | 6.0 | 13.0 | 0.00 | 0.00 | 0.00 | 74 | 1015.2 |
| 20260504211650 | 66 | 250 | 6.0 | 14.0 | 0.00 | 0.00 | 0.00 | 73 | 1015.3 |
| 20260504211149 | 66 | 0 | 7.0 | 14.0 | 0.00 | 0.00 | 0.00 | 73 | 1015.2 |
| 20260504210640 | 67 | 250 | 6.0 | 14.0 | 0.00 | 0.00 | 0.00 | 72 | 1015.2 |
| 20260504210140 | 67 | 0 | 6.0 | 11.0 | 0.00 | 0.00 | 0.00 | 72 | 1015.2 |
| 20260504210036 | 67 | 207 | 7.0 | 13.0 | 0.00 | 0.00 | 0.00 | 73 | 1015.2 |
| 20260504205132 | 66 | 170 | 7.0 | 15.0 | 0.00 | 0.00 | 0.00 | 72 | 1015.2 |
| 20260504204631 | 66 | 217 | 7.0 | 15.0 | 0.00 | 0.00 | 0.00 | 72 | 1015.2 |
| 20260504204131 | 66 | 0 | 7.0 | 15.0 | 0.00 | 0.00 | 0.00 | 72 | 1015.3 |
| 20260504203631 | 66 | 0 | 7.0 | 15.0 | 0.00 | 0.00 | 0.00 | 70 | 1015.3 |
| 20260504203134 | 67 | 213 | 6.0 | 13.0 | 0.00 | 0.00 | 0.00 | 70 | 1015.3 |
| 20260504202631 | 66 | 285 | 6.0 | 13.0 | 0.00 | 0.00 | 0.00 | 68 | 1015.2 |
| 20260504202134 | 67 | 0 | 6.0 | 13.0 | 0.00 | 0.00 | 0.00 | 66 | 1015.2 |
| 20260504201631 | 67 | 225 | 5.0 | 11.0 | 0.00 | 0.00 | 0.00 | 65 | 1015.2 |
| 20260504201128 | 67 | 219 | 6.0 | 14.0 | 0.00 | 0.00 | 0.00 | 67 | 1015.3 |
| 20260504200629 | 67 | 0 | 6.0 | 14.0 | 0.00 | 0.00 | 0.00 | 65 | 1015.3 |
| 20260504200129 | 67 | 190 | 6.0 | 12.0 | 0.00 | 0.00 | 0.00 | 64 | 1015.3 |
| 20260504195630 | 67 | 225 | 5.0 | 14.0 | 0.00 | 0.00 | 0.00 | 64 | 1015.2 |
| 20260504195131 | 67 | 200 | 6.0 | 14.0 | 0.00 | 0.00 | 0.00 | 66 | 1015.2 |
| 20260504194640 | 67 | 201 | 6.0 | 12.0 | 0.00 | 0.00 | 0.00 | 65 | 1015.3 |
| 20260504194518 | 67 | 263 | 6.0 | 12.0 | 0.00 | 0.00 | 0.00 | 64 | 1015.3 |
| 20260504193624 | 67 | 187 | 5.0 | 12.0 | 0.00 | 0.00 | 0.00 | 67 | 1015.3 |
| 20260504193122 | 66 | 222 | 6.0 | 16.0 | 0.00 | 0.00 | 0.00 | 67 | 1015.3 |
| 20260504192622 | 66 | 255 | 6.0 | 16.0 | 0.00 | 0.00 | 0.00 | 65 | 1015.4 |
| 20260504192140 | 67 | 250 | 5.0 | 12.0 | 0.00 | 0.00 | 0.00 | 66 | 1015.5 |
| 20260504191630 | 67 | 194 | 5.0 | 14.0 | 0.00 | 0.00 | 0.00 | 66 | 1015.4 |
| 20260504191137 | 67 | 236 | 5.0 | 14.0 | 0.00 | 0.00 | 0.00 | 65 | 1015.3 |
| 20260504190626 | 67 | 283 | 5.0 | 11.0 | 0.00 | 0.00 | 0.00 | 66 | 1015.3 |
| 20260504190128 | 67 | 0 | 5.0 | 11.0 | 0.00 | 0.00 | 0.00 | 66 | 1015.3 |
| 20260504185627 | 67 | 0 | 5.0 | 11.0 | 0.00 | 0.00 | 0.00 | 69 | 1015.4 |
| 20260504185132 | 66 | 275 | 5.0 | 15.0 | 0.00 | 0.00 | 0.00 | 68 | 1015.4 |
| 20260504184622 | 66 | 0 | 5.0 | 15.0 | 0.00 | 0.00 | 0.00 | 68 | 1015.5 |
| 20260504184124 | 66 | 0 | 5.0 | 12.0 | 0.00 | 0.00 | 0.00 | 70 | 1015.4 |
| 20260504183622 | 66 | 210 | 6.0 | 12.0 | 0.00 | 0.00 | 0.00 | 70 | 1015.4 |
| 20260504183436 | 66 | 0 | 5.0 | 11.0 | 0.00 | 0.00 | 0.00 | 70 | 1015.4 |
| 20260504183033 | 66 | 193 | 4.0 | 10.0 | 0.00 | 0.00 | 0.00 | 71 | 1015.4 |
| 20260504182124 | 65 | 194 | 5.0 | 13.0 | 0.00 | 0.00 | 0.00 | 71 | 1015.5 |
| 20260504181623 | 65 | 0 | 6.0 | 14.0 | 0.00 | 0.00 | 0.00 | 70 | 1015.5 |
| 20260504181127 | 65 | 221 | 6.0 | 14.0 | 0.00 | 0.00 | 0.00 | 69 | 1015.6 |
| 20260504180620 | 65 | 211 | 5.0 | 12.0 | 0.00 | 0.00 | 0.00 | 69 | 1015.6 |
| 20260504180130 | 65 | 252 | 4.0 | 11.0 | 0.00 | 0.00 | 0.00 | 69 | 1015.5 |
| 20260504175622 | 65 | 196 | 5.0 | 13.0 | 0.00 | 0.00 | 0.00 | 70 | 1015.6 |
| 20260504175121 | 65 | 288 | 6.0 | 13.0 | 0.00 | 0.00 | 0.00 | 72 | 1015.6 |
| 20260504175007 | 65 | 0 | 5.0 | 13.0 | 0.00 | 0.00 | 0.00 | 71 | 1015.6 |
| 20260504174122 | 65 | 261 | 5.0 | 13.0 | 0.00 | 0.00 | 0.00 | 70 | 1015.5 |
| 20260504173620 | 65 | 250 | 4.0 | 12.0 | 0.00 | 0.00 | 0.00 | 71 | 1015.5 |
| 20260504173504 | 64 | 205 | 5.0 | 12.0 | 0.00 | 0.00 | 0.00 | 71 | 1015.5 |
| 20260504173103 | 64 | 277 | 6.0 | 11.0 | 0.00 | 0.00 | 0.00 | 72 | 1015.4 |
| 20260504172119 | 63 | 253 | 6.0 | 12.0 | 0.00 | 0.00 | 0.00 | 70 | 1015.4 |
| 20260504171619 | 64 | 178 | 6.0 | 14.0 | 0.00 | 0.00 | 0.00 | 72 | 1015.4 |
| 20260504171120 | 63 | 223 | 7.0 | 17.0 | 0.00 | 0.00 | 0.00 | 72 | 1015.4 |
| 20260504170618 | 63 | 232 | 6.0 | 17.0 | 0.00 | 0.00 | 0.00 | 71 | 1015.4 |
| 20260504170121 | 64 | 248 | 5.0 | 12.0 | 0.00 | 0.00 | 0.00 | 70 | 1015.4 |
| 20260504160112 | 62 | 0 | 4.0 | 12.0 | 0.00 | 0.00 | 0.00 | 75 | 1015.0 |
| 20260504151107 | 60 | 248 | 3.0 | 8.0 | 0.00 | 0.00 | 0.00 | 77 | 1014.7 |
| 20260504150605 | 60 | 181 | 2.0 | 6.0 | 0.00 | 0.00 | 0.00 | 78 | 1014.8 |
| 20260504150514 | 60 | 273 | 2.0 | 4.0 | 0.00 | 0.00 | 0.00 | 79 | 1014.7 |
| 20260504141103 | 58 | 199 | 3.0 | 8.0 | 0.00 | 0.00 | 0.00 | 83 | 1014.5 |
| 20260504140603 | 58 | 296 | 2.0 | 8.0 | 0.00 | 0.00 | 0.00 | 83 | 1014.5 |
| 20260504140103 | 58 | 0 | 2.0 | 8.0 | 0.00 | 0.00 | 0.00 | 83 | 1014.5 |
| 20260504110545 | 59 | 227 | 2.0 | 9.0 | 0.00 | 0.00 | 0.00 | 82 | 1013.9 |
| 20260504082007 | 58 | 268 | 2.0 | 8.0 | 0.00 | 0.00 | 0.00 | 82 | 1014.8 |
| 20260504081838 | 59 | 263 | 3.0 | 6.0 | 0.00 | 0.00 | 0.00 | 82 | 1014.8 |
| 20260504081349 | 59 | 232 | 3.0 | 9.0 | 0.00 | 0.00 | 0.00 | 83 | 1015.1 |
| 20260504080506 | 59 | 0 | 3.0 | 9.0 | 0.00 | 0.00 | 0.00 | 82 | 1014.9 |
| 20260504050455 | 60 | 0 | 3.0 | 8.0 | 0.00 | 0.00 | 0.00 | 78 | 1014.6 |
| 20260504045954 | 60 | 231 | 3.0 | 8.0 | 0.00 | 0.00 | 0.00 | 78 | 1014.6 |
| 20260504045839 | 60 | 207 | 3.0 | 8.0 | 0.00 | 0.00 | 0.00 | 78 | 1014.5 |
| 20260504044956 | 60 | 226 | 3.0 | 8.0 | 0.00 | 0.00 | 0.00 | 79 | 1014.6 |
| 20260504044452 | 60 | 202 | 3.0 | 8.0 | 0.00 | 0.00 | 0.00 | 79 | 1014.3 |
| 20260504043952 | 60 | 0 | 4.0 | 8.0 | 0.00 | 0.00 | 0.00 | 79 | 1014.5 |
| 20260504043455 | 60 | 252 | 3.0 | 8.0 | 0.00 | 0.00 | 0.00 | 80 | 1014.4 |
| 20260504042951 | 60 | 0 | 3.0 | 8.0 | 0.00 | 0.00 | 0.00 | 80 | 1014.5 |
| 20260504042450 | 60 | 218 | 3.0 | 8.0 | 0.00 | 0.00 | 0.00 | 81 | 1014.4 |
| 20260504041949 | 60 | 225 | 3.0 | 7.0 | 0.00 | 0.00 | 0.00 | 81 | 1014.4 |
| 20260504041818 | 60 | 0 | 3.0 | 7.0 | 0.00 | 0.00 | 0.00 | 81 | 1014.4 |
| 20260504041056 | 60 | 223 | 3.0 | 7.0 | 0.00 | 0.00 | 0.00 | 83 | 1014.2 |
| 20260504041013 | 60 | 272 | 3.0 | 8.0 | 0.00 | 0.00 | 0.00 | 82 | 1014.2 |
| 20260504040552 | 60 | 186 | 3.0 | 8.0 | 0.00 | 0.00 | 0.00 | 82 | 1014.1 |
| 20260504035437 | 60 | 180 | 3.0 | 7.0 | 0.00 | 0.00 | 0.00 | 83 | 1014.1 |
| 20260504034936 | 60 | 0 | 3.0 | 8.0 | 0.00 | 0.00 | 0.00 | 83 | 1014.0 |
| 20260504034437 | 60 | 197 | 2.0 | 8.0 | 0.00 | 0.00 | 0.00 | 83 | 1013.9 |
| 20260504033936 | 60 | 0 | 2.0 | 7.0 | 0.00 | 0.00 | 0.00 | 83 | 1014.0 |
| 20260504033438 | 60 | 221 | 3.0 | 8.0 | 0.00 | 0.00 | 0.00 | 83 | 1014.0 |
| 20260504032935 | 60 | 269 | 3.0 | 8.0 | 0.00 | 0.00 | 0.00 | 83 | 1013.8 |
| 20260504032439 | 60 | 205 | 3.0 | 8.0 | 0.00 | 0.00 | 0.00 | 83 | 1013.8 |
| 20260504031934 | 60 | 227 | 3.0 | 6.0 | 0.00 | 0.00 | 0.00 | 82 | 1013.7 |
| 20260504031650 | 60 | 195 | 4.0 | 9.0 | 0.00 | 0.00 | 0.00 | 81 | 1013.7 |
| 20260504031541 | 60 | 263 | 3.0 | 9.0 | 0.00 | 0.00 | 0.00 | 81 | 1013.7 |
| 20260504030629 | 60 | 205 | 3.0 | 9.0 | 0.00 | 0.00 | 0.00 | 80 | 1013.5 |
| 20260504030536 | 60 | 241 | 3.0 | 9.0 | 0.00 | 0.00 | 0.00 | 80 | 1013.6 |
| 20260504025436 | 60 | 267 | 4.0 | 10.0 | 0.00 | 0.00 | 0.00 | 80 | 1013.5 |
| 20260504024935 | 60 | 205 | 4.0 | 11.0 | 0.00 | 0.00 | 0.00 | 79 | 1013.6 |
| 20260504024452 | 60 | 0 | 5.0 | 11.0 | 0.00 | 0.00 | 0.00 | 80 | 1013.6 |
| 20260504024356 | 60 | 275 | 4.0 | 11.0 | 0.00 | 0.00 | 0.00 | 79 | 1013.4 |
| 20260504023436 | 60 | 234 | 4.0 | 11.0 | 0.00 | 0.00 | 0.00 | 80 | 1013.3 |
| 20260504023130 | 61 | 257 | 5.0 | 11.0 | 0.00 | 0.00 | 0.00 | 79 | 1013.3 |
| 20260504023049 | 61 | 196 | 4.0 | 11.0 | 0.00 | 0.00 | 0.00 | 79 | 1013.4 |
| 20260504021931 | 61 | 0 | 5.0 | 13.0 | 0.00 | 0.00 | 0.00 | 79 | 1013.4 |
| 20260504021433 | 61 | 266 | 4.0 | 13.0 | 0.00 | 0.00 | 0.00 | 78 | 1013.2 |
| 20260504020930 | 61 | 0 | 4.0 | 10.0 | 0.00 | 0.00 | 0.00 | 78 | 1013.3 |
| 20260504020432 | 61 | 0 | 4.0 | 10.0 | 0.00 | 0.00 | 0.00 | 78 | 1013.3 |
| 20260504015931 | 61 | 213 | 4.0 | 9.0 | 0.00 | 0.00 | 0.00 | 79 | 1013.0 |
| 20260504015429 | 61 | 207 | 4.0 | 10.0 | 0.00 | 0.00 | 0.00 | 79 | 1013.2 |
| 20260504014942 | 61 | 0 | 4.0 | 10.0 | 0.00 | 0.00 | 0.00 | 79 | 1013.1 |
| 20260504014415 | 61 | 276 | 4.0 | 10.0 | 0.00 | 0.00 | 0.00 | 79 | 1013.0 |
| 20260504013920 | 61 | 291 | 4.0 | 10.0 | 0.00 | 0.00 | 0.00 | 78 | 1013.0 |
| 20260504013417 | 62 | 178 | 3.0 | 7.0 | 0.00 | 0.00 | 0.00 | 78 | 1013.0 |
| 20260504012918 | 62 | 250 | 3.0 | 8.0 | 0.00 | 0.00 | 0.00 | 78 | 1012.7 |
| 20260504012415 | 62 | 236 | 3.0 | 9.0 | 0.00 | 0.00 | 0.00 | 78 | 1013.1 |
| 20260504011915 | 62 | 0 | 3.0 | 9.0 | 0.00 | 0.00 | 0.00 | 77 | 1013.2 |
| 20260504011417 | 62 | 258 | 4.0 | 8.0 | 0.00 | 0.00 | 0.00 | 78 | 1012.9 |
| 20260504010916 | 62 | 0 | 4.0 | 9.0 | 0.00 | 0.00 | 0.00 | 77 | 1012.7 |
| 20260504010430 | 62 | 0 | 4.0 | 10.0 | 0.00 | 0.00 | 0.00 | 77 | 1012.8 |
| 20260504005917 | 62 | 207 | 4.0 | 12.0 | 0.00 | 0.00 | 0.00 | 78 | 1012.7 |
| 20260504005414 | 63 | 252 | 4.0 | 12.0 | 0.00 | 0.00 | 0.00 | 76 | 1012.7 |
| 20260504004913 | 63 | 0 | 4.0 | 9.0 | 0.00 | 0.00 | 0.00 | 76 | 1012.8 |
| 20260504004413 | 63 | 0 | 4.0 | 9.0 | 0.00 | 0.00 | 0.00 | 75 | 1012.7 |
| 20260504003912 | 64 | 0 | 3.0 | 8.0 | 0.00 | 0.00 | 0.00 | 75 | 1012.8 |
| 20260504003411 | 64 | 271 | 4.0 | 8.0 | 0.00 | 0.00 | 0.00 | 74 | 1012.7 |
| 20260504002920 | 64 | 182 | 4.0 | 9.0 | 0.00 | 0.00 | 0.00 | 74 | 1012.7 |
| 20260504002410 | 64 | 196 | 4.0 | 9.0 | 0.00 | 0.00 | 0.00 | 74 | 1012.6 |
| 20260504002356 | 65 | 307 | 3.0 | 9.0 | 0.00 | 0.00 | 0.00 | 71 | 1012.6 |
| 20260504001412 | 65 | 0 | 4.0 | 9.0 | 0.00 | 0.00 | 0.00 | 72 | 1012.6 |
| 20260504000920 | 65 | 248 | 3.0 | 9.0 | 0.00 | 0.00 | 0.00 | 73 | 1012.6 |
| 20260504000409 | 64 | 0 | 3.0 | 8.0 | 0.00 | 0.00 | 0.00 | 74 | 1012.5 |
| 20260504000314 | 64 | 275 | 4.0 | 9.0 | 0.00 | 0.00 | 0.00 | 76 | 1012.5 |
| 20260503235738 | 63 | 282 | 4.0 | 10.0 | 0.00 | 0.00 | 0.00 | 76 | 1012.5 |
| 20260503234910 | 63 | 214 | 4.0 | 10.0 | 0.00 | 0.00 | 0.00 | 76 | 1012.5 |
| 20260503234843 | 63 | 0 | 4.0 | 9.0 | 0.00 | 0.00 | 0.00 | 77 | 1012.6 |